This is the latest recevied weather packets stored in our database for station/object AA8FM-13. If no packets are shown the sender has not sent any weather packets the latest 1 day(s).
| Time | Temp. | Humidity | Pressure | Rain* | Wind** | Luminosity | Snow |
|---|---|---|---|---|---|---|---|
| 1778031166 | 20° C | 55% | 1006.4 hPa | 0 mm | 0 m/s | 0 W/m² | - |
| 1778030862 | 19.44° C | 55% | 1006.3 hPa | 0 mm | 0.89 m/s, 135° | 0 W/m² | - |
| 1778030559 | 19.44° C | 57% | 1006.2 hPa | 0 mm | 0 m/s | 0 W/m² | - |
| 1778030257 | 19.44° C | 58% | 1006.3 hPa | 0 mm | 0 m/s | 0 W/m² | - |
| 1778029953 | 19.44° C | 58% | 1006.1 hPa | 0 mm | 0 m/s | 0 W/m² | - |
| 1778029651 | 20° C | 57% | 1006.1 hPa | 0 mm | 0 m/s | 0 W/m² | - |
| 1778029348 | 20° C | 55% | 1005.9 hPa | 0 mm | 0 m/s | 0 W/m² | - |
| 1778029045 | 20° C | 56% | 1006 hPa | 0 mm | 0 m/s | 0 W/m² | - |
| 1778028742 | 20° C | 54% | 1005.7 hPa | 0 mm | 0 m/s | 0 W/m² | - |
| 1778028438 | 19.44° C | 54% | 1006.1 hPa | 0 mm | 0 m/s | 0 W/m² | - |
| 1778028136 | 19.44° C | 58% | 1006 hPa | 0 mm | 0 m/s | 0 W/m² | - |
| 1778027831 | 20° C | 58% | 1006.2 hPa | 0 mm | 0 m/s | 0 W/m² | - |
| 1778027528 | 20° C | 56% | 1006.3 hPa | 0 mm | 0 m/s | 0 W/m² | - |
| 1778027224 | 20° C | 53% | 1006.2 hPa | 0 mm | 0 m/s | 0 W/m² | - |
| 1778026920 | 20° C | 55% | 1006.2 hPa | 0 mm | 0 m/s | 1 W/m² | - |
| 1778026610 | 20.56° C | 55% | 1006.2 hPa | 0 mm | 0 m/s | 1 W/m² | - |
| 1778026308 | 20.56° C | 54% | 1006.2 hPa | 0 mm | 0 m/s | 2 W/m² | - |
| 1778026005 | 21.11° C | 51% | 1006.2 hPa | 0 mm | 0 m/s | 3 W/m² | - |
| 1778025702 | 21.11° C | 50% | 1006.2 hPa | 0 mm | 0 m/s | 4 W/m² | - |
| 1778025400 | 21.11° C | 50% | 1006.1 hPa | 0 mm | 0 m/s | 5 W/m² | - |
| 1778025097 | 21.67° C | 49% | 1006 hPa | 0 mm | 0 m/s | 8 W/m² | - |
| 1778024794 | 21.67° C | 48% | 1006 hPa | 0 mm | 0 m/s | 12 W/m² | - |
| 1778024490 | 21.67° C | 48% | 1005.9 hPa | 0 mm | 0.45 m/s, 223° | 18 W/m² | - |
| 1778024188 | 21.67° C | 49% | 1006.2 hPa | 0 mm | 0.45 m/s, 343° | 20 W/m² | - |
| 1778023885 | 21.67° C | 49% | 1005.9 hPa | 0 mm | 0.45 m/s, 314° | 18 W/m² | - |
* Rain latest hour (hover to see other rain measurements)
** Current wind speed in m/s (hover to see current wind gust speed)